Time,TemperatureF,DewpointF,PressureIn,WindDirection,WindDirectionDegrees,WindSpeedMPH,WindSpeedGustMPH,Humidity,HourlyPrecipIn,Conditions,Clouds,dailyrainin,SoftwareType,DateUTC
2013-03-29 00:00:00,30.0,21.4,30.16,SSE,153,3.0,4.0,70,0.00,,BKN001,0.00,VWS V14.00,2013-03-29 06:00:00,
2013-03-29 00:05:00,30.0,21.4,30.16,WSW,238,4.0,4.0,70,0.00,,BKN001,0.00,VWS V14.00,2013-03-29 06:05:00,
2013-03-29 00:10:00,30.4,20.8,30.16,WNW,290,4.0,4.0,67,0.00,,BKN001,0.00,VWS V14.00,2013-03-29 06:10:00,
2013-03-29 00:15:00,30.6,21.0,30.16,WSW,249,1.0,4.0,67,0.00,,BKN001,0.00,VWS V14.00,2013-03-29 06:15:00,
2013-03-29 00:20:00,30.6,20.6,30.16,South,181,0.0,4.0,66,0.00,,BKN001,0.00,VWS V14.00,2013-03-29 06:20:00,
2013-03-29 00:25:00,30.2,20.9,30.17,SW,221,0.0,4.0,68,0.00,,BKN001,0.00,VWS V14.00,2013-03-29 06:25:00,
2013-03-29 00:30:00,29.4,20.8,30.17,SSW,197,1.0,4.0,70,0.00,,BKN001,0.00,VWS V14.00,2013-03-29 06:30:00,
2013-03-29 00:35:00,28.8,20.9,30.17,SSW,207,2.0,2.0,72,0.00,,BKN001,0.00,VWS V14.00,2013-03-29 06:35:00,
2013-03-29 00:40:00,28.7,20.8,30.17,SSW,210,1.0,2.0,72,0.00,,BKN001,0.00,VWS V14.00,2013-03-29 06:40:00,
2013-03-29 00:45:00,28.8,20.9,30.17,SE,136,3.0,3.0,72,0.00,,BKN001,0.00,VWS V14.00,2013-03-29 06:45:00,
2013-03-29 00:50:00,29.1,21.2,30.17,ESE,103,2.0,4.0,72,0.00,,BKN001,0.00,VWS V14.00,2013-03-29 06:50:00,
2013-03-29 00:55:00,28.6,21.1,30.17,SSE,159,1.0,4.0,73,0.00,,BKN001,0.00,VWS V14.00,2013-03-29 06:55:00,
2013-03-29 01:00:00,28.4,20.9,30.17,SSE,153,2.0,4.0,73,0.00,,BKN001,0.00,VWS V14.00,2013-03-29 07:00:00,
2013-03-29 01:05:00,28.4,20.9,30.17,SSE,148,1.0,2.0,73,0.00,,BKN001,0.00,VWS V14.00,2013-03-29 07:05:00,
2013-03-29 01:10:00,28.7,20.8,30.17,SSE,160,2.0,3.0,72,0.00,,BKN001,0.00,VWS V14.00,2013-03-29 07:10:00,
2013-03-29 01:15:00,28.9,21.0,30.17,SE,136,2.0,3.0,72,0.00,,BKN001,0.00,VWS V14.00,2013-03-29 07:15:00,
2013-03-29 01:20:00,28.3,20.8,30.17,SE,136,0.0,3.0,73,0.00,,BKN001,0.00,VWS V14.00,2013-03-29 07:20:00,
2013-03-29 01:25:00,27.7,20.5,30.17,SE,136,1.0,3.0,74,0.00,,BKN001,0.00,VWS V14.00,2013-03-29 07:25:00,
2013-03-29 01:30:00,27.7,20.2,30.17,SE,128,3.0,3.0,73,0.00,,BKN001,0.00,VWS V14.00,2013-03-29 07:30:00,
2013-03-29 01:35:00,28.1,20.6,30.17,SW,225,3.0,3.0,73,0.00,,BKN001,0.00,VWS V14.00,2013-03-29 07:35:00,
2013-03-29 01:40:00,27.5,20.9,30.17,SW,228,1.0,3.0,76,0.00,,BKN001,0.00,VWS V14.00,2013-03-29 07:40:00,
2013-03-29 01:45:00,26.8,20.9,30.17,SSE,161,3.0,3.0,78,0.00,,BKN001,0.00,VWS V14.00,2013-03-29 07:45:00,
2013-03-29 01:50:00,26.9,21.0,30.17,South,169,1.0,3.0,78,0.00,,BKN001,0.00,VWS V14.00,2013-03-29 07:50:00,
2013-03-29 01:55:00,26.8,20.9,30.17,SSE,150,1.0,3.0,78,0.00,,BKN001,0.00,VWS V14.00,2013-03-29 07:55:00,
2013-03-29 02:00:00,26.7,20.5,30.18,SSE,150,0.0,3.0,77,0.00,,BKN001,0.00,VWS V14.00,2013-03-29 08:00:00,
2013-03-29 02:05:00,26.8,20.6,30.18,SSE,150,0.0,0.0,77,0.00,,BKN001,0.00,VWS V14.00,2013-03-29 08:05:00,
2013-03-29 02:10:00,26.6,20.4,30.18,SSE,150,0.0,0.0,77,0.00,,BKN001,0.00,VWS V14.00,2013-03-29 08:10:00,
2013-03-29 02:15:00,26.1,20.2,30.18,SSE,150,0.0,0.0,78,0.00,,BKN001,0.00,VWS V14.00,2013-03-29 08:15:00,
2013-03-29 02:20:00,25.6,20.0,30.19,SSE,150,0.0,0.0,79,0.00,,BKN001,0.00,VWS V14.00,2013-03-29 08:20:00,
2013-03-29 02:25:00,25.5,20.2,30.19,East,91,0.0,0.0,80,0.00,,BKN001,0.00,VWS V14.00,2013-03-29 08:25:00,
2013-03-29 02:30:00,26.1,20.5,30.19,ESE,108,1.0,2.0,79,0.00,,BKN001,0.00,VWS V14.00,2013-03-29 08:30:00,
2013-03-29 02:35:00,26.2,20.3,30.19,ESE,107,0.0,1.0,78,0.00,,BKN001,0.00,VWS V14.00,2013-03-29 08:35:00,
2013-03-29 02:40:00,26.0,20.1,30.19,SE,145,1.0,1.0,78,0.00,,BKN001,0.00,VWS V14.00,2013-03-29 08:40:00,
2013-03-29 02:45:00,26.3,20.4,30.19,East,101,2.0,3.0,78,0.00,,BKN001,0.00,VWS V14.00,2013-03-29 08:45:00,
2013-03-29 02:50:00,25.6,20.0,30.19,ESE,102,0.0,3.0,79,0.00,,BKN001,0.00,VWS V14.00,2013-03-29 08:50:00,
2013-03-29 02:55:00,25.1,20.1,30.19,SSW,212,0.0,3.0,81,0.00,,BKN001,0.00,VWS V14.00,2013-03-29 08:55:00,
2013-03-29 03:00:00,24.9,20.2,30.19,SSW,205,3.0,3.0,82,0.00,,BKN001,0.00,VWS V14.00,2013-03-29 09:00:00,
2013-03-29 03:05:00,24.9,20.2,30.19,SSW,212,1.0,1.0,82,0.00,,BKN001,0.00,VWS V14.00,2013-03-29 09:05:00,
2013-03-29 03:10:00,25.0,20.3,30.19,South,172,2.0,3.0,82,0.00,,BKN001,0.00,VWS V14.00,2013-03-29 09:10:00,
2013-03-29 03:15:00,25.4,20.1,30.19,SW,222,3.0,3.0,80,0.00,,BKN001,0.00,VWS V14.00,2013-03-29 09:15:00,
2013-03-29 03:20:00,25.5,20.2,30.19,SW,228,2.0,3.0,80,0.00,,BKN001,0.00,VWS V14.00,2013-03-29 09:20:00,
2013-03-29 03:25:00,25.0,19.4,30.19,West,260,1.0,3.0,79,0.00,,BKN001,0.00,VWS V14.00,2013-03-29 09:25:00,
2013-03-29 03:30:00,24.4,19.4,30.19,SE,140,1.0,3.0,81,0.00,,BKN001,0.00,VWS V14.00,2013-03-29 09:30:00,
2013-03-29 03:35:00,24.5,19.5,30.19,SW,232,0.0,3.0,81,0.00,,BKN001,0.00,VWS V14.00,2013-03-29 09:35:00,
2013-03-29 03:40:00,24.6,19.3,30.19,South,175,1.0,3.0,80,0.00,,BKN001,0.00,VWS V14.00,2013-03-29 09:40:00,
2013-03-29 03:45:00,24.4,19.1,30.19,SW,222,2.0,3.0,80,0.00,,BKN001,0.00,VWS V14.00,2013-03-29 09:45:00,
2013-03-29 03:50:00,24.2,18.9,30.19,SSW,210,3.0,3.0,80,0.00,,BKN001,0.00,VWS V14.00,2013-03-29 09:50:00,
2013-03-29 03:55:00,24.4,19.1,30.19,SE,146,3.0,3.0,80,0.00,,BKN001,0.00,VWS V14.00,2013-03-29 09:55:00,
2013-03-29 04:00:00,24.3,19.0,30.19,SSE,148,0.0,3.0,80,0.00,,BKN001,0.00,VWS V14.00,2013-03-29 10:00:00,
2013-03-29 04:05:00,24.0,18.7,30.19,South,186,1.0,1.0,80,0.00,,BKN001,0.00,VWS V14.00,2013-03-29 10:05:00,
2013-03-29 04:10:00,24.2,18.9,30.19,SW,218,1.0,4.0,80,0.00,,BKN001,0.00,VWS V14.00,2013-03-29 10:10:00,
2013-03-29 04:15:00,24.0,19.0,30.19,SSW,212,0.0,4.0,81,0.00,,BKN001,0.00,VWS V14.00,2013-03-29 10:15:00,
2013-03-29 04:20:00,23.7,18.7,30.19,SW,222,0.0,4.0,81,0.00,,BKN001,0.00,VWS V14.00,2013-03-29 10:20:00,
2013-03-29 04:25:00,23.4,18.7,30.19,East,97,1.0,4.0,82,0.00,,BKN001,0.00,VWS V14.00,2013-03-29 10:25:00,
2013-03-29 04:30:00,23.4,18.7,30.19,SE,129,2.0,4.0,82,0.00,,BKN001,0.00,VWS V14.00,2013-03-29 10:30:00,
2013-03-29 04:35:00,23.6,18.9,30.20,SE,138,1.0,2.0,82,0.00,,BKN001,0.00,VWS V14.00,2013-03-29 10:35:00,
2013-03-29 04:40:00,23.6,18.6,30.19,SW,229,4.0,5.0,81,0.00,,BKN001,0.00,VWS V14.00,2013-03-29 10:40:00,
2013-03-29 04:45:00,23.8,18.8,30.19,SSW,203,2.0,5.0,81,0.00,,BKN001,0.00,VWS V14.00,2013-03-29 10:45:00,
2013-03-29 04:50:00,23.8,18.8,30.19,South,190,1.0,5.0,81,0.00,,BKN001,0.00,VWS V14.00,2013-03-29 10:50:00,
2013-03-29 04:55:00,23.4,18.4,30.19,South,191,0.0,5.0,81,0.00,,BKN001,0.00,VWS V14.00,2013-03-29 10:55:00,
2013-03-29 05:00:00,22.8,18.1,30.19,West,261,1.0,5.0,82,0.00,,BKN001,0.00,VWS V14.00,2013-03-29 11:00:00,
2013-03-29 05:05:00,22.5,18.1,30.20,SW,235,0.0,0.0,83,0.00,,BKN001,0.00,VWS V14.00,2013-03-29 11:05:00,
2013-03-29 05:10:00,22.4,18.3,30.20,SW,221,0.0,0.0,84,0.00,,BKN001,0.00,VWS V14.00,2013-03-29 11:10:00,
2013-03-29 05:15:00,22.5,18.1,30.20,SE,136,2.0,2.0,83,0.00,,BKN001,0.00,VWS V14.00,2013-03-29 11:15:00,
2013-03-29 05:20:00,22.7,18.3,30.20,South,176,3.0,4.0,83,0.00,,BKN001,0.00,VWS V14.00,2013-03-29 11:20:00,
2013-03-29 05:25:00,22.7,18.0,30.19,SSE,166,3.0,4.0,82,0.00,,BKN001,0.00,VWS V14.00,2013-03-29 11:25:00,
2013-03-29 05:30:00,22.7,18.0,30.19,SSE,167,2.0,4.0,82,0.00,,BKN001,0.00,VWS V14.00,2013-03-29 11:30:00,
2013-03-29 05:35:00,22.6,18.2,30.20,SSE,149,2.0,2.0,83,0.00,,BKN001,0.00,VWS V14.00,2013-03-29 11:35:00,
2013-03-29 05:40:00,22.6,18.2,30.20,SSW,200,2.0,3.0,83,0.00,,BKN001,0.00,VWS V14.00,2013-03-29 11:40:00,
2013-03-29 05:45:00,22.8,18.1,30.20,SW,232,2.0,5.0,82,0.00,,BKN001,0.00,VWS V14.00,2013-03-29 11:45:00,
2013-03-29 05:50:00,22.8,18.1,30.20,WSW,248,0.0,5.0,82,0.00,,BKN001,0.00,VWS V14.00,2013-03-29 11:50:00,
2013-03-29 05:55:00,22.6,17.9,30.20,WSW,248,0.0,5.0,82,0.00,,BKN001,0.00,VWS V14.00,2013-03-29 11:55:00,
2013-03-29 06:00:00,22.1,17.5,30.21,ENE,75,1.0,5.0,82,0.00,,BKN001,0.00,VWS V14.00,2013-03-29 12:00:00,
2013-03-29 06:05:00,21.8,17.4,30.21,ENE,75,0.0,0.0,83,0.00,,BKN001,0.00,VWS V14.00,2013-03-29 12:05:00,
2013-03-29 06:10:00,21.5,17.4,30.21,ENE,75,0.0,0.0,84,0.00,,BKN001,0.00,VWS V14.00,2013-03-29 12:10:00,
2013-03-29 06:15:00,21.5,17.4,30.21,ENE,75,0.0,0.0,84,0.00,,BKN001,0.00,VWS V14.00,2013-03-29 12:15:00,
2013-03-29 06:20:00,21.5,17.4,30.21,SE,128,0.0,0.0,84,0.00,,BKN001,0.00,VWS V14.00,2013-03-29 12:20:00,
2013-03-29 06:25:00,21.8,18.0,30.21,SE,132,0.0,0.0,85,0.00,,BKN001,0.00,VWS V14.00,2013-03-29 12:25:00,
2013-03-29 06:30:00,22.3,18.2,30.21,SE,132,0.0,0.0,84,0.00,,BKN001,0.00,VWS V14.00,2013-03-29 12:30:00,
2013-03-29 06:35:00,22.8,18.1,30.22,SSE,155,0.0,0.0,82,0.00,,BKN001,0.00,VWS V14.00,2013-03-29 12:35:00,
2013-03-29 06:40:00,22.8,17.9,30.22,SSW,203,0.0,0.0,81,0.00,,BKN001,0.00,VWS V14.00,2013-03-29 12:40:00,
2013-03-29 06:45:00,22.5,17.6,30.22,ESE,112,2.0,3.0,81,0.00,,BKN001,0.00,VWS V14.00,2013-03-29 12:45:00,
2013-03-29 06:50:00,21.8,17.2,30.22,SW,235,0.0,3.0,82,0.00,,BKN001,0.00,VWS V14.00,2013-03-29 12:50:00,
2013-03-29 06:55:00,21.3,17.0,30.23,West,274,0.0,3.0,83,0.00,,BKN001,0.00,VWS V14.00,2013-03-29 12:55:00,
2013-03-29 07:00:00,20.8,16.7,30.23,West,274,0.0,3.0,84,0.00,,BKN001,0.00,VWS V14.00,2013-03-29 13:00:00,
2013-03-29 07:05:00,20.6,16.8,30.23,East,81,2.0,3.0,85,0.00,,BKN001,0.00,VWS V14.00,2013-03-29 13:05:00,
2013-03-29 07:10:00,21.2,17.4,30.23,ESE,120,3.0,3.0,85,0.00,,BKN001,0.00,VWS V14.00,2013-03-29 13:10:00,
2013-03-29 07:15:00,21.4,17.3,30.23,SE,136,3.0,3.0,84,0.00,,BKN001,0.00,VWS V14.00,2013-03-29 13:15:00,
2013-03-29 07:20:00,21.4,17.3,30.23,SSE,153,3.0,3.0,84,0.00,,BKN001,0.00,VWS V14.00,2013-03-29 13:20:00,
2013-03-29 07:25:00,21.8,17.4,30.24,SSW,210,1.0,4.0,83,0.00,,BKN001,0.00,VWS V14.00,2013-03-29 13:25:00,
2013-03-29 07:30:00,22.1,17.7,30.24,SW,229,3.0,5.0,83,0.00,,BKN001,0.00,VWS V14.00,2013-03-29 13:30:00,
2013-03-29 07:35:00,21.8,17.4,30.24,SW,218,5.0,5.0,83,0.00,,BKN001,0.00,VWS V14.00,2013-03-29 13:35:00,
2013-03-29 07:40:00,21.7,17.3,30.24,WSW,252,5.0,8.0,83,0.00,,BKN001,0.00,VWS V14.00,2013-03-29 13:40:00,
2013-03-29 07:45:00,21.7,17.3,30.24,SW,230,5.0,8.0,83,0.00,,BKN001,0.00,VWS V14.00,2013-03-29 13:45:00,
2013-03-29 07:50:00,21.5,16.9,30.24,SW,215,3.0,8.0,82,0.00,,BKN001,0.00,VWS V14.00,2013-03-29 13:50:00,
2013-03-29 07:55:00,21.5,17.1,30.24,SSW,210,0.0,8.0,83,0.00,,BKN001,0.00,VWS V14.00,2013-03-29 13:55:00,
2013-03-29 08:00:00,21.7,17.3,30.25,NE,41,0.0,8.0,83,0.00,,BKN001,0.00,VWS V14.00,2013-03-29 14:00:00,
2013-03-29 08:05:00,21.7,17.3,30.25,NNW,340,0.0,3.0,83,0.00,,BKN001,0.00,VWS V14.00,2013-03-29 14:05:00,
2013-03-29 08:10:00,21.7,17.3,30.25,ENE,64,0.0,4.0,83,0.00,,BKN001,0.00,VWS V14.00,2013-03-29 14:10:00,
2013-03-29 08:15:00,21.8,17.4,30.25,ENE,64,1.0,4.0,83,0.00,,BKN001,0.00,VWS V14.00,2013-03-29 14:15:00,
2013-03-29 08:20:00,23.2,19.1,30.25,SW,215,2.0,4.0,84,0.00,,BKN001,0.00,VWS V14.00,2013-03-29 14:20:00,
2013-03-29 08:25:00,24.6,19.6,30.24,SE,131,2.0,4.0,81,0.00,,BKN001,0.00,VWS V14.00,2013-03-29 14:25:00,
2013-03-29 08:30:00,25.5,20.2,30.24,ESE,118,0.0,4.0,80,0.00,,BKN001,0.00,VWS V14.00,2013-03-29 14:30:00,
2013-03-29 08:35:00,26.7,20.5,30.24,SSE,158,2.0,2.0,77,0.00,,BKN001,0.00,VWS V14.00,2013-03-29 14:35:00,
2013-03-29 08:40:00,27.2,20.6,30.24,SE,136,0.0,3.0,76,0.00,,BKN001,0.00,VWS V14.00,2013-03-29 14:40:00,
2013-03-29 08:45:00,28.6,21.1,30.23,SSE,165,1.0,3.0,73,0.00,,BKN001,0.00,VWS V14.00,2013-03-29 14:45:00,
2013-03-29 08:50:00,28.7,20.5,30.23,WNW,302,2.0,3.0,71,0.00,,BKN001,0.00,VWS V14.00,2013-03-29 14:50:00,
2013-03-29 08:55:00,28.3,20.8,30.23,WNW,293,0.0,3.0,73,0.00,,BKN001,0.00,VWS V14.00,2013-03-29 14:55:00,
2013-03-29 09:00:00,29.0,21.8,30.23,WSW,243,0.0,3.0,74,0.00,,BKN001,0.00,VWS V14.00,2013-03-29 15:00:00,
2013-03-29 09:05:00,30.7,22.1,30.23,SSW,212,0.0,1.0,70,0.00,,BKN001,0.00,VWS V14.00,2013-03-29 15:05:00,
2013-03-29 09:10:00,30.9,21.2,30.23,WSW,253,0.0,2.0,67,0.00,,BKN001,0.00,VWS V14.00,2013-03-29 15:10:00,
2013-03-29 09:15:00,31.4,21.7,30.23,SE,134,1.0,3.0,67,0.00,,BKN001,0.00,VWS V14.00,2013-03-29 15:15:00,
2013-03-29 09:20:00,32.6,22.5,30.22,SE,142,0.0,3.0,66,0.00,,BKN001,0.00,VWS V14.00,2013-03-29 15:20:00,
2013-03-29 09:25:00,34.1,22.8,30.22,SE,139,0.0,3.0,63,0.00,,BKN001,0.00,VWS V14.00,2013-03-29 15:25:00,
2013-03-29 09:30:00,34.1,21.3,30.22,West,281,0.0,3.0,59,0.00,,BKN001,0.00,VWS V14.00,2013-03-29 15:30:00,
2013-03-29 09:35:00,34.6,22.5,30.21,SE,128,2.0,2.0,61,0.00,,BKN001,0.00,VWS V14.00,2013-03-29 15:35:00,
2013-03-29 09:40:00,35.1,22.2,30.21,SSE,159,0.0,3.0,59,0.00,,BKN001,0.00,VWS V14.00,2013-03-29 15:40:00,
2013-03-29 09:45:00,35.2,21.1,30.21,WNW,284,0.0,3.0,56,0.00,,BKN001,0.00,VWS V14.00,2013-03-29 15:45:00,
2013-03-29 09:50:00,35.6,21.0,30.21,WSW,248,0.0,3.0,55,0.00,,BKN001,0.00,VWS V14.00,2013-03-29 15:50:00,
2013-03-29 09:55:00,36.7,22.1,30.21,WSW,248,0.0,3.0,55,0.00,,BKN001,0.00,VWS V14.00,2013-03-29 15:55:00,
2013-03-29 10:00:00,37.1,22.0,30.21,NNE,30,1.0,4.0,54,0.00,,BKN001,0.00,VWS V14.00,2013-03-29 16:00:00,
2013-03-29 10:05:00,38.0,22.4,30.20,NNW,338,3.0,3.0,53,0.00,,BKN001,0.00,VWS V14.00,2013-03-29 16:05:00,
2013-03-29 10:10:00,38.8,22.2,30.20,NE,44,1.0,3.0,51,0.00,,BKN001,0.00,VWS V14.00,2013-03-29 16:10:00,
2013-03-29 10:15:00,38.8,21.3,30.19,NE,56,2.0,3.0,49,0.00,,BKN001,0.00,VWS V14.00,2013-03-29 16:15:00,
2013-03-29 10:20:00,39.9,21.3,30.19,NE,46,0.0,3.0,47,0.00,,BKN001,0.00,VWS V14.00,2013-03-29 16:20:00,
2013-03-29 10:25:00,40.5,21.4,30.19,NW,304,1.0,3.0,46,0.00,,BKN001,0.00,VWS V14.00,2013-03-29 16:25:00,
2013-03-29 10:30:00,39.5,21.0,30.18,WSW,240,0.0,3.0,47,0.00,,BKN001,0.00,VWS V14.00,2013-03-29 16:30:00,
2013-03-29 10:35:00,40.2,21.1,30.18,SSE,150,1.0,3.0,46,0.00,,BKN001,0.00,VWS V14.00,2013-03-29 16:35:00,
2013-03-29 10:40:00,41.0,21.8,30.17,SSE,153,1.0,3.0,46,0.00,,BKN001,0.00,VWS V14.00,2013-03-29 16:40:00,
2013-03-29 10:45:00,41.7,23.0,30.17,SE,128,2.0,5.0,47,0.00,,BKN001,0.00,VWS V14.00,2013-03-29 16:45:00,
2013-03-29 10:50:00,41.9,22.6,30.17,WSW,240,4.0,6.0,46,0.00,,BKN001,0.00,VWS V14.00,2013-03-29 16:50:00,
2013-03-29 10:55:00,41.3,22.6,30.17,West,259,1.0,6.0,47,0.00,,BKN001,0.00,VWS V14.00,2013-03-29 16:55:00,
2013-03-29 11:00:00,41.4,23.2,30.17,WNW,296,0.0,6.0,48,0.00,,BKN001,0.00,VWS V14.00,2013-03-29 17:00:00,
2013-03-29 11:05:00,41.9,22.6,30.16,NW,315,4.0,4.0,46,0.00,,BKN001,0.00,VWS V14.00,2013-03-29 17:05:00,
2013-03-29 11:10:00,42.1,23.3,30.16,WSW,243,0.0,5.0,47,0.00,,BKN001,0.00,VWS V14.00,2013-03-29 17:10:00,
2013-03-29 11:15:00,43.0,25.2,30.16,SSW,204,1.0,5.0,49,0.00,,BKN001,0.00,VWS V14.00,2013-03-29 17:15:00,
2013-03-29 11:20:00,44.0,25.6,30.16,ESE,120,2.0,5.0,48,0.00,,BKN001,0.00,VWS V14.00,2013-03-29 17:20:00,
2013-03-29 11:25:00,44.5,26.5,30.16,West,274,1.0,5.0,49,0.00,,BKN001,0.00,VWS V14.00,2013-03-29 17:25:00,
2013-03-29 11:30:00,44.8,25.3,30.15,SW,225,1.0,5.0,46,0.00,,BKN001,0.00,VWS V14.00,2013-03-29 17:30:00,
2013-03-29 11:35:00,45.9,26.3,30.15,SE,133,1.0,3.0,46,0.00,,BKN001,0.00,VWS V14.00,2013-03-29 17:35:00,
2013-03-29 11:40:00,47.6,22.6,30.15,SSE,150,7.0,8.0,37,0.00,,BKN001,0.00,VWS V14.00,2013-03-29 17:40:00,
2013-03-29 11:45:00,49.2,22.7,30.15,SE,146,10.0,12.0,35,0.00,,BKN001,0.00,VWS V14.00,2013-03-29 17:45:00,
2013-03-29 11:50:00,49.0,21.9,30.14,SSE,155,4.0,16.0,34,0.00,,BKN001,0.00,VWS V14.00,2013-03-29 17:50:00,
2013-03-29 11:55:00,48.5,19.3,30.14,ESE,117,5.0,16.0,31,0.00,,BKN001,0.00,VWS V14.00,2013-03-29 17:55:00,
2013-03-29 12:00:00,48.7,19.4,30.14,SE,142,6.0,16.0,31,0.00,,BKN001,0.00,VWS V14.00,2013-03-29 18:00:00,
2013-03-29 12:05:00,48.6,19.4,30.13,SE,136,3.0,9.0,31,0.00,,BKN001,0.00,VWS V14.00,2013-03-29 18:05:00,
2013-03-29 12:10:00,48.9,19.6,30.13,SSE,150,4.0,9.0,31,0.00,,BKN001,0.00,VWS V14.00,2013-03-29 18:10:00,
2013-03-29 12:15:00,48.8,22.4,30.13,SSW,212,4.0,9.0,35,0.00,,BKN001,0.00,VWS V14.00,2013-03-29 18:15:00,
2013-03-29 12:20:00,49.7,23.2,30.13,SW,215,11.0,11.0,35,0.00,,BKN001,0.00,VWS V14.00,2013-03-29 18:20:00,
2013-03-29 12:25:00,50.1,18.3,30.12,SW,219,2.0,12.0,28,0.00,,BKN001,0.00,VWS V14.00,2013-03-29 18:25:00,
2013-03-29 12:30:00,50.0,18.2,30.12,East,89,6.0,12.0,28,0.00,,BKN001,0.00,VWS V14.00,2013-03-29 18:30:00,
2013-03-29 12:35:00,50.2,19.2,30.12,NNE,32,0.0,5.0,29,0.00,,BKN001,0.00,VWS V14.00,2013-03-29 18:35:00,
2013-03-29 12:40:00,50.7,18.0,30.12,NE,55,0.0,6.0,27,0.00,,BKN001,0.00,VWS V14.00,2013-03-29 18:40:00,
2013-03-29 12:45:00,50.5,16.9,30.12,WNW,297,2.0,6.0,26,0.00,,BKN001,0.00,VWS V14.00,2013-03-29 18:45:00,
2013-03-29 12:50:00,50.4,18.5,30.11,SE,142,3.0,6.0,28,0.00,,BKN001,0.00,VWS V14.00,2013-03-29 18:50:00,
2013-03-29 12:55:00,50.2,21.5,30.11,NNW,338,6.0,13.0,32,0.00,,BKN001,0.00,VWS V14.00,2013-03-29 18:55:00,
2013-03-29 13:00:00,50.1,18.3,30.11,NNE,29,0.0,13.0,28,0.00,,BKN001,0.00,VWS V14.00,2013-03-29 19:00:00,
2013-03-29 13:05:00,50.6,17.9,30.11,North,353,0.0,18.0,27,0.00,,BKN001,0.00,VWS V14.00,2013-03-29 19:05:00,
2013-03-29 13:10:00,50.4,17.7,30.10,East,82,8.0,18.0,27,0.00,,BKN001,0.00,VWS V14.00,2013-03-29 19:10:00,
2013-03-29 13:15:00,50.0,17.4,30.10,East,79,4.0,18.0,27,0.00,,BKN001,0.00,VWS V14.00,2013-03-29 19:15:00,
2013-03-29 13:20:00,50.1,17.4,30.10,East,81,2.0,18.0,27,0.00,,BKN001,0.00,VWS V14.00,2013-03-29 19:20:00,
2013-03-29 13:25:00,50.2,17.5,30.10,ENE,74,2.0,18.0,27,0.00,,BKN001,0.00,VWS V14.00,2013-03-29 19:25:00,
2013-03-29 13:30:00,50.4,18.5,30.10,SSW,198,0.0,18.0,28,0.00,,BKN001,0.00,VWS V14.00,2013-03-29 19:30:00,
2013-03-29 13:35:00,50.6,17.0,30.09,SE,139,5.0,16.0,26,0.00,,BKN001,0.00,VWS V14.00,2013-03-29 19:35:00,
2013-03-29 13:40:00,51.5,21.1,30.09,SW,231,1.0,16.0,30,0.00,,BKN001,0.00,VWS V14.00,2013-03-29 19:40:00,
2013-03-29 13:45:00,52.2,19.2,30.09,NE,43,1.0,16.0,27,0.00,,BKN001,0.00,VWS V14.00,2013-03-29 19:45:00,
2013-03-29 13:50:00,51.4,18.6,30.09,ENE,64,2.0,16.0,27,0.00,,BKN001,0.00,VWS V14.00,2013-03-29 19:50:00,
2013-03-29 13:55:00,51.1,18.3,30.09,East,84,10.0,16.0,27,0.00,,BKN001,0.00,VWS V14.00,2013-03-29 19:55:00,
2013-03-29 14:00:00,50.4,18.5,30.09,NW,322,8.0,17.0,28,0.00,,BKN001,0.00,VWS V14.00,2013-03-29 20:00:00,
2013-03-29 14:05:00,50.0,16.5,30.09,NNW,330,9.0,15.0,26,0.00,,BKN001,0.00,VWS V14.00,2013-03-29 20:05:00,
2013-03-29 14:10:00,50.1,18.3,30.09,NE,43,0.0,15.0,28,0.00,,BKN001,0.00,VWS V14.00,2013-03-29 20:10:00,
2013-03-29 14:15:00,50.6,17.0,30.09,NE,52,2.0,15.0,26,0.00,,BKN001,0.00,VWS V14.00,2013-03-29 20:15:00,
2013-03-29 14:20:00,50.6,16.1,30.08,SE,145,4.0,15.0,25,0.00,,BKN001,0.00,VWS V14.00,2013-03-29 20:20:00,
2013-03-29 14:25:00,50.9,18.1,30.08,NNW,327,6.0,15.0,27,0.00,,BKN001,0.00,VWS V14.00,2013-03-29 20:25:00,
2013-03-29 14:30:00,52.1,18.3,30.08,NNE,33,3.0,15.0,26,0.00,,BKN001,0.00,VWS V14.00,2013-03-29 20:30:00,
2013-03-29 14:35:00,51.6,17.0,30.08,NNE,27,5.0,24.0,25,0.00,,BKN001,0.00,VWS V14.00,2013-03-29 20:35:00,
2013-03-29 14:40:00,51.7,17.0,30.08,NNW,330,11.0,24.0,25,0.00,,BKN001,0.00,VWS V14.00,2013-03-29 20:40:00,
2013-03-29 14:45:00,52.8,15.0,30.07,NNE,33,2.0,24.0,22,0.00,,BKN001,0.00,VWS V14.00,2013-03-29 20:45:00,
2013-03-29 14:50:00,52.8,17.0,30.07,WNW,294,7.0,24.0,24,0.00,,BKN001,0.00,VWS V14.00,2013-03-29 20:50:00,
2013-03-29 14:55:00,53.3,14.4,30.07,NE,51,5.0,24.0,21,0.00,,BKN001,0.00,VWS V14.00,2013-03-29 20:55:00,
2013-03-29 15:00:00,53.2,17.4,30.07,NNW,340,15.0,24.0,24,0.00,,BKN001,0.00,VWS V14.00,2013-03-29 21:00:00,
2013-03-29 15:05:00,53.6,17.7,30.07,WNW,297,13.0,25.0,24,0.00,,BKN001,0.00,VWS V14.00,2013-03-29 21:05:00,
2013-03-29 15:10:00,53.3,18.4,30.07,North,359,4.0,25.0,25,0.00,,BKN001,0.00,VWS V14.00,2013-03-29 21:10:00,
2013-03-29 15:15:00,53.7,18.7,30.07,NW,313,2.0,25.0,25,0.00,,BKN001,0.00,VWS V14.00,2013-03-29 21:15:00,
2013-03-29 15:20:00,53.2,18.3,30.07,NNW,330,5.0,25.0,25,0.00,,BKN001,0.00,VWS V14.00,2013-03-29 21:20:00,
2013-03-29 15:25:00,52.2,16.5,30.07,WNW,300,7.0,25.0,24,0.00,,BKN001,0.00,VWS V14.00,2013-03-29 21:25:00,
2013-03-29 15:30:00,51.7,17.0,30.07,NW,322,7.0,25.0,25,0.00,,BKN001,0.00,VWS V14.00,2013-03-29 21:30:00,
2013-03-29 15:35:00,51.3,17.6,30.07,NNW,327,4.0,10.0,26,0.00,,BKN001,0.00,VWS V14.00,2013-03-29 21:35:00,
2013-03-29 15:40:00,52.1,17.4,30.06,NNE,18,4.0,14.0,25,0.00,,BKN001,0.00,VWS V14.00,2013-03-29 21:40:00,
2013-03-29 15:45:00,51.8,16.2,30.06,NE,43,0.0,14.0,24,0.00,,BKN001,0.00,VWS V14.00,2013-03-29 21:45:00,
2013-03-29 15:50:00,51.6,18.7,30.06,ENE,69,9.0,14.0,27,0.00,,BKN001,0.00,VWS V14.00,2013-03-29 21:50:00,
2013-03-29 15:55:00,51.2,17.5,30.06,South,183,3.0,14.0,26,0.00,,BKN001,0.00,VWS V14.00,2013-03-29 21:55:00,
2013-03-29 16:00:00,51.3,18.5,30.07,NE,55,0.0,14.0,27,0.00,,BKN001,0.00,VWS V14.00,2013-03-29 22:00:00,
2013-03-29 16:05:00,51.2,16.6,30.07,ENE,72,3.0,5.0,25,0.00,,BKN001,0.00,VWS V14.00,2013-03-29 22:05:00,
2013-03-29 16:10:00,51.5,18.6,30.06,SSE,159,1.0,5.0,27,0.00,,BKN001,0.00,VWS V14.00,2013-03-29 22:10:00,
2013-03-29 16:15:00,51.9,16.3,30.06,SE,141,2.0,5.0,24,0.00,,BKN001,0.00,VWS V14.00,2013-03-29 22:15:00,
2013-03-29 16:20:00,52.0,21.5,30.06,SE,125,3.0,6.0,30,0.00,,BKN001,0.00,VWS V14.00,2013-03-29 22:20:00,
2013-03-29 16:25:00,51.4,19.4,30.07,SW,214,4.0,7.0,28,0.00,,BKN001,0.00,VWS V14.00,2013-03-29 22:25:00,
2013-03-29 16:30:00,51.0,16.4,30.07,SSE,151,6.0,8.0,25,0.00,,BKN001,0.00,VWS V14.00,2013-03-29 22:30:00,
2013-03-29 16:35:00,51.7,17.0,30.07,SW,220,3.0,6.0,25,0.00,,BKN001,0.00,VWS V14.00,2013-03-29 22:35:00,
2013-03-29 16:40:00,51.6,15.0,30.07,SW,218,3.0,6.0,23,0.00,,BKN001,0.00,VWS V14.00,2013-03-29 22:40:00,
2013-03-29 16:45:00,51.5,18.6,30.06,ENE,66,19.0,19.0,27,0.00,,BKN001,0.00,VWS V14.00,2013-03-29 22:45:00,
2013-03-29 16:50:00,51.4,21.0,30.06,West,281,16.0,21.0,30,0.00,,BKN001,0.00,VWS V14.00,2013-03-29 22:50:00,
2013-03-29 16:55:00,50.6,17.9,30.07,WNW,302,10.0,21.0,27,0.00,,BKN001,0.00,VWS V14.00,2013-03-29 22:55:00,
2013-03-29 17:00:00,50.4,20.9,30.07,NNW,340,3.0,21.0,31,0.00,,BKN001,0.00,VWS V14.00,2013-03-29 23:00:00,
2013-03-29 17:05:00,50.1,20.7,30.07,NNE,25,3.0,13.0,31,0.00,,BKN001,0.00,VWS V14.00,2013-03-29 23:05:00,
2013-03-29 17:10:00,50.4,20.1,30.07,NNW,333,5.0,13.0,30,0.00,,BKN001,0.00,VWS V14.00,2013-03-29 23:10:00,
2013-03-29 17:15:00,51.6,22.0,30.07,NNE,33,8.0,13.0,31,0.00,,BKN001,0.00,VWS V14.00,2013-03-29 23:15:00,
2013-03-29 17:20:00,52.7,19.7,30.07,NNW,347,4.0,13.0,27,0.00,,BKN001,0.00,VWS V14.00,2013-03-29 23:20:00,
2013-03-29 17:25:00,52.2,20.9,30.07,NE,51,9.0,13.0,29,0.00,,BKN001,0.00,VWS V14.00,2013-03-29 23:25:00,
2013-03-29 17:30:00,52.4,21.1,30.07,NE,41,1.0,13.0,29,0.00,,BKN001,0.00,VWS V14.00,2013-03-29 23:30:00,
2013-03-29 17:35:00,52.7,19.7,30.07,North,350,2.0,9.0,27,0.00,,BKN001,0.00,VWS V14.00,2013-03-29 23:35:00,
2013-03-29 17:40:00,53.2,20.1,30.07,West,264,2.0,9.0,27,0.00,,BKN001,0.00,VWS V14.00,2013-03-29 23:40:00,
2013-03-29 17:45:00,53.3,16.5,30.07,South,178,5.0,10.0,23,0.00,,BKN001,0.00,VWS V14.00,2013-03-29 23:45:00,
2013-03-29 17:50:00,53.2,20.1,30.07,SW,232,5.0,10.0,27,0.00,,BKN001,0.00,VWS V14.00,2013-03-29 23:50:00,
2013-03-29 17:55:00,53.4,18.5,30.07,SW,231,4.0,10.0,25,0.00,,BKN001,0.00,VWS V14.00,2013-03-29 23:55:00,
2013-03-29 18:00:00,53.9,18.0,30.07,SSW,208,3.0,10.0,24,0.00,,BKN001,0.00,VWS V14.00,2013-03-30 00:00:00,
2013-03-29 18:05:00,53.0,17.2,30.07,WSW,249,5.0,12.0,24,0.00,,BKN001,0.00,VWS V14.00,2013-03-30 00:05:00,
2013-03-29 18:10:00,52.2,18.4,30.07,South,181,10.0,12.0,26,0.00,,BKN001,0.00,VWS V14.00,2013-03-30 00:10:00,
2013-03-29 18:15:00,52.1,17.4,30.07,SSW,198,14.0,17.0,25,0.00,,BKN001,0.00,VWS V14.00,2013-03-30 00:15:00,
2013-03-29 18:20:00,51.6,15.0,30.07,South,191,9.0,19.0,23,0.00,,BKN001,0.00,VWS V14.00,2013-03-30 00:20:00,
2013-03-29 18:25:00,51.2,14.7,30.08,South,181,7.0,20.0,23,0.00,,BKN001,0.00,VWS V14.00,2013-03-30 00:25:00,
2013-03-29 18:30:00,50.2,15.8,30.08,SSW,207,9.0,20.0,25,0.00,,BKN001,0.00,VWS V14.00,2013-03-30 00:30:00,
2013-03-29 18:35:00,49.8,13.5,30.08,South,173,2.0,15.0,23,0.00,,BKN001,0.00,VWS V14.00,2013-03-30 00:35:00,
2013-03-29 18:40:00,49.5,14.2,30.08,SSW,195,4.0,15.0,24,0.00,,BKN001,0.00,VWS V14.00,2013-03-30 00:40:00,
2013-03-29 18:45:00,49.0,14.7,30.09,ESE,122,1.0,15.0,25,0.00,,BKN001,0.00,VWS V14.00,2013-03-30 00:45:00,
2013-03-29 18:50:00,48.6,14.4,30.09,East,79,6.0,15.0,25,0.00,,BKN001,0.00,VWS V14.00,2013-03-30 00:50:00,
2013-03-29 18:55:00,48.6,14.4,30.09,SE,138,3.0,15.0,25,0.00,,BKN001,0.00,VWS V14.00,2013-03-30 00:55:00,
2013-03-29 19:00:00,48.1,14.9,30.09,WSW,238,9.0,16.0,26,0.00,,BKN001,0.00,VWS V14.00,2013-03-30 01:00:00,
2013-03-29 19:05:00,47.9,16.4,30.09,SSE,167,6.0,9.0,28,0.00,,BKN001,0.00,VWS V14.00,2013-03-30 01:05:00,
2013-03-29 19:10:00,47.5,16.0,30.09,South,177,17.0,17.0,28,0.00,,BKN001,0.00,VWS V14.00,2013-03-30 01:10:00,
2013-03-29 19:15:00,47.9,16.4,30.09,SE,136,4.0,17.0,28,0.00,,BKN001,0.00,VWS V14.00,2013-03-30 01:15:00,
2013-03-29 19:20:00,47.3,19.0,30.09,South,189,5.0,17.0,32,0.00,,BKN001,0.00,VWS V14.00,2013-03-30 01:20:00,
2013-03-29 19:25:00,46.5,16.8,30.09,SSE,162,6.0,17.0,30,0.00,,BKN001,0.00,VWS V14.00,2013-03-30 01:25:00,
2013-03-29 19:30:00,46.4,18.2,30.10,SSW,204,7.0,17.0,32,0.00,,BKN001,0.00,VWS V14.00,2013-03-30 01:30:00,
2013-03-29 19:35:00,46.3,18.8,30.11,SSW,198,6.0,10.0,33,0.00,,BKN001,0.00,VWS V14.00,2013-03-30 01:35:00,
2013-03-29 19:40:00,45.5,18.8,30.10,SW,225,7.0,10.0,34,0.00,,BKN001,0.00,VWS V14.00,2013-03-30 01:40:00,
2013-03-29 19:45:00,45.6,18.2,30.11,SSW,204,4.0,10.0,33,0.00,,BKN001,0.00,VWS V14.00,2013-03-30 01:45:00,
2013-03-29 19:50:00,44.9,20.2,30.11,SSW,194,5.0,10.0,37,0.00,,BKN001,0.00,VWS V14.00,2013-03-30 01:50:00,
2013-03-29 19:55:00,44.2,20.2,30.11,SSE,155,6.0,10.0,38,0.00,,BKN001,0.00,VWS V14.00,2013-03-30 01:55:00,
2013-03-29 20:00:00,42.8,21.3,30.11,South,181,3.0,10.0,42,0.00,,BKN001,0.00,VWS V14.00,2013-03-30 02:00:00,
2013-03-29 20:05:00,42.2,21.3,30.12,SSE,148,4.0,5.0,43,0.00,,BKN001,0.00,VWS V14.00,2013-03-30 02:05:00,
2013-03-29 20:10:00,41.4,22.2,30.12,West,267,2.0,6.0,46,0.00,,BKN001,0.00,VWS V14.00,2013-03-30 02:10:00,
2013-03-29 20:15:00,40.5,23.8,30.12,SW,218,3.0,6.0,51,0.00,,BKN001,0.00,VWS V14.00,2013-03-30 02:15:00,
2013-03-29 20:20:00,40.7,23.0,30.12,South,173,5.0,6.0,49,0.00,,BKN001,0.00,VWS V14.00,2013-03-30 02:20:00,
2013-03-29 20:25:00,40.8,21.6,30.12,South,169,5.0,6.0,46,0.00,,BKN001,0.00,VWS V14.00,2013-03-30 02:25:00,
2013-03-29 20:30:00,40.8,21.6,30.12,SSW,207,5.0,8.0,46,0.00,,BKN001,0.00,VWS V14.00,2013-03-30 02:30:00,
2013-03-29 20:35:00,39.7,23.1,30.12,South,190,5.0,6.0,51,0.00,,BKN001,0.00,VWS V14.00,2013-03-30 02:35:00,
2013-03-29 20:40:00,39.8,22.7,30.12,SSW,195,5.0,6.0,50,0.00,,BKN001,0.00,VWS V14.00,2013-03-30 02:40:00,
2013-03-29 20:45:00,39.5,22.4,30.12,South,191,6.0,6.0,50,0.00,,BKN001,0.00,VWS V14.00,2013-03-30 02:45:00,
2013-03-29 20:50:00,39.4,21.8,30.13,South,184,6.0,8.0,49,0.00,,BKN001,0.00,VWS V14.00,2013-03-30 02:50:00,
2013-03-29 20:55:00,38.0,23.3,30.13,SW,229,3.0,8.0,55,0.00,,BKN001,0.00,VWS V14.00,2013-03-30 02:55:00,
2013-03-29 21:00:00,37.4,22.7,30.13,SSE,165,8.0,8.0,55,0.00,,BKN001,0.00,VWS V14.00,2013-03-30 03:00:00,
2013-03-29 21:05:00,38.5,23.3,30.14,SSE,158,6.0,9.0,54,0.00,,BKN001,0.00,VWS V14.00,2013-03-30 03:05:00,
2013-03-29 21:10:00,37.6,23.8,30.14,West,274,0.0,9.0,57,0.00,,BKN001,0.00,VWS V14.00,2013-03-30 03:10:00,
2013-03-29 21:15:00,36.4,23.5,30.14,WSW,256,5.0,9.0,59,0.00,,BKN001,0.00,VWS V14.00,2013-03-30 03:15:00,
2013-03-29 21:20:00,36.3,23.8,30.14,West,259,4.0,9.0,60,0.00,,BKN001,0.00,VWS V14.00,2013-03-30 03:20:00,
2013-03-29 21:25:00,36.0,23.5,30.15,SE,132,1.0,9.0,60,0.00,,BKN001,0.00,VWS V14.00,2013-03-30 03:25:00,
2013-03-29 21:30:00,35.6,23.5,30.15,SW,215,6.0,9.0,61,0.00,,BKN001,0.00,VWS V14.00,2013-03-30 03:30:00,
2013-03-29 21:35:00,35.3,22.8,30.15,ESE,120,6.0,9.0,60,0.00,,BKN001,0.00,VWS V14.00,2013-03-30 03:35:00,
2013-03-29 21:40:00,34.5,23.2,30.15,South,189,3.0,9.0,63,0.00,,BKN001,0.00,VWS V14.00,2013-03-30 03:40:00,
2013-03-29 21:45:00,34.4,23.5,30.15,SW,229,4.0,9.0,64,0.00,,BKN001,0.00,VWS V14.00,2013-03-30 03:45:00,
2013-03-29 21:50:00,34.5,23.6,30.15,SSW,205,6.0,10.0,64,0.00,,BKN001,0.00,VWS V14.00,2013-03-30 03:50:00,
2013-03-29 21:55:00,34.6,23.3,30.16,SSW,207,6.0,10.0,63,0.00,,BKN001,0.00,VWS V14.00,2013-03-30 03:55:00,
2013-03-29 22:00:00,34.8,23.5,30.16,SW,221,3.0,10.0,63,0.00,,BKN001,0.00,VWS V14.00,2013-03-30 04:00:00,
2013-03-29 22:05:00,34.0,23.1,30.16,North,349,2.0,3.0,64,0.00,,BKN001,0.00,VWS V14.00,2013-03-30 04:05:00,
2013-03-29 22:10:00,33.5,23.0,30.16,West,281,0.0,3.0,65,0.00,,BKN001,0.00,VWS V14.00,2013-03-30 04:10:00,
2013-03-29 22:15:00,33.2,23.1,30.17,SW,220,0.0,3.0,66,0.00,,BKN001,0.00,VWS V14.00,2013-03-30 04:15:00,
2013-03-29 22:20:00,32.8,23.1,30.17,SSE,150,0.0,3.0,67,0.00,,BKN001,0.00,VWS V14.00,2013-03-30 04:20:00,
2013-03-29 22:25:00,32.2,23.2,30.17,SSW,210,4.0,6.0,69,0.00,,BKN001,0.00,VWS V14.00,2013-03-30 04:25:00,
2013-03-29 22:30:00,32.5,23.1,30.17,SW,225,7.0,8.0,68,0.00,,BKN001,0.00,VWS V14.00,2013-03-30 04:30:00,
2013-03-29 22:35:00,32.5,22.8,30.17,SW,214,8.0,10.0,67,0.00,,BKN001,0.00,VWS V14.00,2013-03-30 04:35:00,
2013-03-29 22:40:00,32.4,23.0,30.18,SSW,207,3.0,10.0,68,0.00,,BKN001,0.00,VWS V14.00,2013-03-30 04:40:00,
2013-03-29 22:45:00,32.2,22.5,30.18,SSW,207,6.0,10.0,67,0.00,,BKN001,0.00,VWS V14.00,2013-03-30 04:45:00,
2013-03-29 22:50:00,32.1,22.8,30.18,South,175,6.0,10.0,68,0.00,,BKN001,0.00,VWS V14.00,2013-03-30 04:50:00,
2013-03-29 22:55:00,31.5,22.9,30.19,SW,229,8.0,10.0,70,0.00,,BKN001,0.00,VWS V14.00,2013-03-30 04:55:00,
2013-03-29 23:00:00,31.3,22.7,30.19,SW,229,6.0,10.0,70,0.00,,BKN001,0.00,VWS V14.00,2013-03-30 05:00:00,
2013-03-29 23:05:00,30.9,22.6,30.19,SW,231,2.0,8.0,71,0.00,,BKN001,0.00,VWS V14.00,2013-03-30 05:05:00,
2013-03-29 23:10:00,30.9,22.6,30.20,SSW,198,2.0,8.0,71,0.00,,BKN001,0.00,VWS V14.00,2013-03-30 05:10:00,
2013-03-29 23:15:00,30.7,22.8,30.20,SSE,166,1.0,8.0,72,0.00,,BKN001,0.00,VWS V14.00,2013-03-30 05:15:00,
2013-03-29 23:20:00,30.4,22.5,30.20,SSW,203,0.0,8.0,72,0.00,,BKN001,0.00,VWS V14.00,2013-03-30 05:20:00,
2013-03-29 23:25:00,30.1,22.5,30.20,WSW,237,1.0,8.0,73,0.00,,BKN001,0.00,VWS V14.00,2013-03-30 05:25:00,
2013-03-29 23:30:00,30.2,22.3,30.20,WSW,255,3.0,8.0,72,0.00,,BKN001,0.00,VWS V14.00,2013-03-30 05:30:00,
2013-03-29 23:35:00,29.8,22.2,30.20,WSW,253,3.0,5.0,73,0.00,,BKN001,0.00,VWS V14.00,2013-03-30 05:35:00,
2013-03-29 23:40:00,29.4,22.1,30.19,SW,231,3.0,7.0,74,0.00,,BKN001,0.00,VWS V14.00,2013-03-30 05:40:00,
2013-03-29 23:45:00,29.4,21.8,30.20,SE,132,1.0,7.0,73,0.00,,BKN001,0.00,VWS V14.00,2013-03-30 05:45:00,
2013-03-29 23:50:00,29.4,21.8,30.20,SSE,155,4.0,7.0,73,0.00,,BKN001,0.00,VWS V14.00,2013-03-30 05:50:00,
2013-03-29 23:55:00,29.6,21.7,30.20,SSW,194,4.0,7.0,72,0.00,,BKN001,0.00,VWS V14.00,2013-03-30 05:55:00,